Regional Weather Roundup
Issued by NWS

Home | Current Version | Previous Version | Graphics & Text | Print | Product List | Glossary On
Versions: 1 2 3 4 5 6 7 8 9 10 11 12 13 14 15 16 17 18 19 20 21 22 23 24 25 26 27 28 29 30 31 32 33 34 35 36 37 38 39 40 41 42 43 44 45 46 47 48 49 50
000
ASUS45 KCYS 221010
RWRWY

WYOMING REGIONAL WEATHER ROUNDUP
NATIONAL WEATHER SERVICE CHEYENNE WY
400 AM MDT TUE MAY 22 2018

NOTE:  "FAIR" INDICATES FEW OR NO CLOUDS BELOW 12,000 FEET
WITH NO SIGNIFICANT WEATHER AND/OR OBSTRUCTIONS TO VISIBILITY.

WYZ001-221100-
YELLOWSTONE NATIONAL PARK

CITY           SKY/WX    TMP DP  RH WIND       PRES   REMARKS
LK YELLOWSTONE   N/A     31  29  92 CALM      30.14S
W YELLOWSTONE  NOT AVBL

$$
WYZ002>013-054>058-071-098>099-221100-
NORTHERN WYOMING

CITY           SKY/WX    TMP DP  RH WIND       PRES   REMARKS
JACKSON        FAIR      39  35  86 N9        30.07S WCI  33
CODY           FAIR      46  42  86 S5        30.03R
GREYBULL       FAIR      48  47  96 SE5       29.96R
WORLAND        FAIR      46  45  96 S6        29.96S
SHERIDAN       FAIR      47  44  90 W5        29.95F
BUFFALO        FAIR      50  42  74 W7        29.99F
GILLETTE       FAIR      48  44  86 VRB3      29.97S
NEWCASTLE      FAIR      50  41  71 SW3       29.98R

$$
WYZ014>020-022>026-101>103-221100-
CENTRAL WYOMING

CITY           SKY/WX    TMP DP  RH WIND       PRES   REMARKS
BIG PINEY      FAIR      39  36  89 S8        30.07R WCI  33
PINEDALE       FAIR      36  36 100 CALM      30.08R
DUBOIS         FAIR      36  32  87 W8        30.08S WCI  29
LANDER         FAIR      48  41  76 NW8       29.99S
RIVERTON       FAIR      48  44  86 CALM      30.01R
CASPER         FAIR      44  43  96 N3        29.98S
DOUGLAS        FAIR      48  46  93 CALM      29.98S

$$
WYZ021-027>030-104>119-221100-
SOUTHERN WYOMING

CITY           SKY/WX    TMP DP  RH WIND       PRES   REMARKS
EVANSTON       FAIR      46  40  79 N12       30.03R
KEMMERER       FAIR      41  34  75 N9        30.07R
FORT BRIDGER   PTSUNNY   47  38  71 NE6       30.06S
ROCK SPRINGS   FAIR      48  39  71 NE7       30.01F
DIXON          FAIR      44  31  61 E3        30.02S
RAWLINS        FAIR      47  40  76 E7        30.02S
SARATOGA       FAIR      43  36  75 CALM      30.03F
LARAMIE        FAIR      44  41  89 S8        30.06R
CHEYENNE       FAIR      48  45  89 W7        30.03S
TORRINGTON     FAIR      52  52 100 CALM      29.96R
PINE BLUFFS    FAIR      46  46 100 NW6       30.00R

$$



USA.gov is the U.S. government's official web portal to all federal, state and local government web resources and services.